カタログに戻る

AISHENXING LSP 2

運用中科学SSO
NORAD 65491·PAYLOAD·🇨🇳 China
この衛星名は、まだ公式ソースで確認されていません。

打ち上げ Sep 5, 2025 から Jiuquan Satellite Launch Center

Loading…

次のパス (今後24時間)

TLE

最新Source: Space-Track

元期: Sep 14, 2026, 07:46 UTC

1 65491U 25197D   26257.32411053  .00008936  00000-0  31422-3 0  9991
2 65491  97.4072  84.4074 0014090  55.7712 304.4861 15.29494121 56975

AllMySatでAISHENXING LSP 2をリアルタイム追跡

Download on the App Store